User: anonymous   Login
Location: Unspecified
(0.0000°N, 0.0000°E)
Time: 18:41:15
(UTC+00:00)
Language:

Orbcomm F1 (FM01) - Orbit

View from above orbital plane
View from above orbital plane
View from above satellite
View from above satellite

Ground track
Ground track

The orbit data is extracted from the following two-line orbital elements,

1 23545U 95017A   19077.83680444  .00000354  00000-0  69137-4 0  9994
2 23545  69.9688 232.9133 0003500 127.0560 233.0905 14.71290451276246
Epoch (UTC): 18 March 2019 20:04:59
Eccentricity: 0.0003500
inclination: 69.9688°
perigee height: 654 km
apogee height: 659 km
right ascension of ascending node: 232.9133°
argument of perigee: 127.0560°
revolutions per day: 14.71290451
mean anomaly at epoch: 233.0905°
orbit number at epoch: 27624

The dashed part of the orbit path shows where the satellite is in the earth's shadow,  

DLR